Simultaneous Nadir Overpasses (SNOs) Predictions

Prediction of SNOs between NOAA-19 and NPP Satellite Orbit:

Table of predicted SNOs for the next 14.0 days since TLE Epoch: 12/5/2020
Index Date (NOAA-19) Time (NOAA-19) Lat,Lon (NOAA-19) SZA (NOAA-19 ) Date (NPP) Time (NPP) Lat,Lon (NPP) SZA (NPP ) Distance(km) Time Diff (sec)
1 12/05/2020 03:44:23 -78.88, -85.57 77.62 12/05/2020 03:43:47 -78.86, -85.53 77.62 2.13 36
2 12/05/2020 04:35:19 78.89, 81.74 102.39 12/05/2020 04:34:33 78.88, 81.67 102.41 1.64 46
3 12/05/2020 05:26:23 -78.90,-110.95 77.60 12/05/2020 05:25:17 -78.87,-110.94 77.61 3.03 66
4 12/05/2020 06:17:18 78.93, 56.62 102.42 12/05/2020 06:16:04 78.92, 56.02 102.48 12.98 74
5 12/18/2020 23:15:54 -78.59, -19.99 76.60 12/18/2020 23:17:02 -78.61, -17.31 76.85 58.97 68
6 12/19/2020 00:06:47 78.80, 148.82 103.45 12/19/2020 00:07:52 78.79, 148.87 103.42 1.64 65
7 12/19/2020 00:57:48 -78.81, -43.90 76.55 12/19/2020 00:58:37 -78.81, -43.89 76.57 0.40 49
8 12/19/2020 01:48:47 78.82, 123.44 103.46 12/19/2020 01:49:22 78.80, 123.46 103.43 2.31 35



Historial Predications of SNOs between NOAA-19 and NPP
